Weather History for PAOH - January, 2013

Change the Weather History Date:

Thursday, January 31, 2013

  Actual Average Record
Temperature  
Mean Temperature 34 °F -  
Max Temperature 35 °F 32 °F - (-1)
Min Temperature 32 °F 27 °F - (-1)
Degree Days  
Heating Degree Days 32    
Moisture  
Dew Point 34 °F    
Average Humidity 100    
Maximum Humidity 100    
Minimum Humidity 93    
Precipitation  
Precipitation 0.02 in - - ()
Sea Level Pressure  
Sea Level Pressure 29.98 in    
Wind  
Wind Speed 2 mph (East)    
Max Wind Speed 7 mph    
Max Gust Speed -    
Visibility 6 miles    
Events Fog , Rain , Snow    
Averages and records for this station are not official NWS values.
T = Trace of Precipitation, MM = Missing Value Source: NWS Daily Summary

Daily Weather History Graph

Daily Weather History Graph

Search for Another Location

Airport or City:

Trip Planner

Search our weather history database for the weather conditions in past years. The results will help you decide how hot, cold, wet, or windy it might be!

Date:

Astronomy

Jan. 31, 2013 Rise Set
Actual Time 8:07 AM AKST 4:24 PM AKST
Civil Twilight 7:22 AM AKST 5:08 PM AKST
Nautical Twilight 6:35 AM AKST 5:56 PM AKST
Astronomical Twilight 5:49 AM AKST 6:42 PM AKST
Moon 10:59 PM AKST 8:55 AM AKST
Length of Visible Light 9h 45m
Length of Day
8h 17m
Waning Gibbous, 78% of the Moon is Illuminated
Jan 31
Waning Gibbous
Feb 3
Last Quarter
Feb 9
New
Feb 17
First Quarter
Feb 25
Full

Hourly Weather History & Observations

Time (AKST) Temp. Windchill Dew Point Humidity Pressure Visibility Wind Dir Wind Speed Gust Speed Precip Events Conditions
12:23 AM 33.8 °F 30.8 °F 32.0 °F 93% 29.91 in 4.0 mi East 3.5 mph - 0.00 in Snow Light Snow
12:39 AM 32.0 °F 28.7 °F 32.0 °F 100% 29.90 in 4.0 mi ESE 3.5 mph - 0.00 in Snow Light Snow
12:56 AM 32.0 °F - 32.0 °F 100% 29.91 in 5.0 mi Calm Calm - 0.00 in Snow Light Snow
1:56 AM 34.0 °F 29.8 °F 34.0 °F 100% 29.91 in 4.0 mi East 4.6 mph - 0.01 in Snow Light Snow
2:30 AM 33.8 °F 29.6 °F 33.8 °F 100% 29.90 in 2.5 mi East 4.6 mph - 0.00 in Snow Light Snow
2:56 AM 33.8 °F 30.8 °F 33.8 °F 100% 29.90 in 4.0 mi ENE 3.5 mph - N/A Snow Light Snow
3:07 AM 33.8 °F 28.6 °F 33.8 °F 100% 29.90 in 5.0 mi East 5.8 mph - 0.00 in Snow Light Snow
3:56 AM 34.0 °F 28.0 °F 34.0 °F 100% 29.89 in 7.0 mi East 6.9 mph - 0.01 in Snow Light Snow
4:09 AM 33.8 °F 28.6 °F 33.8 °F 100% 29.88 in 10.0 mi East 5.8 mph - 0.00 in   Overcast
4:56 AM 34.9 °F - 34.0 °F 97% 29.89 in 10.0 mi Calm Calm - 0.00 in   Mostly Cloudy
5:13 AM 33.8 °F - 33.8 °F 100% 29.88 in 10.0 mi Calm Calm - N/A   Overcast
5:56 AM 35.6 °F 31.7 °F 33.8 °F 93% 29.89 in 10.0 mi ENE 4.6 mph - N/A   Overcast
6:42 AM 33.8 °F 30.8 °F 33.8 °F 100% 29.89 in 10.0 mi ESE 3.5 mph - N/A   Overcast
6:56 AM 34.0 °F 31.0 °F 34.0 °F 100% 29.90 in 10.0 mi East 3.5 mph - N/A   Overcast
7:27 AM 33.8 °F 28.6 °F 33.8 °F 100% 29.90 in 10.0 mi ENE 5.8 mph - N/A   Overcast
7:56 AM 32.9 °F 29.8 °F 32.9 °F 100% 29.91 in 10.0 mi SSE 3.5 mph - N/A   Overcast
8:56 AM 34.0 °F 31.0 °F 34.0 °F 100% 29.93 in 10.0 mi ESE 3.5 mph - N/A   Overcast
9:56 AM 32.9 °F - 32.9 °F 100% 29.95 in 3.0 mi Calm Calm - N/A   Overcast
10:09 AM 33.8 °F - 33.8 °F 100% 29.95 in 3.0 mi Calm Calm - N/A   Overcast
10:29 AM 33.8 °F - 33.8 °F 100% 29.95 in 6.0 mi Calm Calm - N/A   Overcast
10:56 AM 32.9 °F - 32.9 °F 100% 29.97 in 6.0 mi Calm Calm - N/A   Overcast
11:09 AM 33.8 °F - 33.8 °F 100% 29.96 in 8.0 mi Calm Calm - N/A   Overcast
11:56 AM 34.0 °F - 34.0 °F 100% 29.97 in 10.0 mi Calm Calm - N/A   Overcast
12:56 PM 34.9 °F - 34.9 °F 100% 29.99 in 2.5 mi Calm Calm - N/A   Overcast
1:19 PM 35.6 °F - 35.6 °F 100% 29.99 in 1.2 mi Calm Calm - N/A   Overcast
1:27 PM 33.8 °F - 33.8 °F 100% 29.99 in 0.8 mi Calm Calm - N/A   Overcast
1:42 PM 33.8 °F - 33.8 °F 100% 29.99 in 0.5 mi Calm Calm - N/A Fog Fog
1:56 PM 34.0 °F - 34.0 °F 100% 30.00 in 0.5 mi Calm Calm - N/A Fog Fog
2:16 PM 33.8 °F - 33.8 °F 100% 30.00 in 1.0 mi Calm Calm - N/A   Overcast
2:30 PM 33.8 °F - 33.8 °F 100% 30.00 in 1.5 mi Calm Calm - N/A   Overcast
2:33 PM 33.8 °F - 33.8 °F 100% 30.00 in 1.0 mi Calm Calm - N/A   Overcast
2:56 PM 33.8 °F - 33.8 °F 100% 30.00 in 1.0 mi Calm Calm - N/A   Overcast
3:20 PM 33.8 °F - 33.8 °F 100% 30.01 in 0.8 mi Calm Calm - N/A   Overcast
3:31 PM 33.8 °F - 33.8 °F 100% 30.01 in 1.2 mi Calm Calm - N/A   Overcast
3:56 PM 32.9 °F - 32.9 °F 100% 30.02 in 1.0 mi Calm Calm - N/A   Overcast
4:23 PM 33.8 °F - 33.8 °F 100% 30.02 in 1.2 mi Calm Calm - N/A   Overcast
4:26 PM 33.8 °F - 33.8 °F 100% 30.02 in 1.5 mi Calm Calm - N/A   Overcast
4:32 PM 33.8 °F - 33.8 °F 100% 30.02 in 1.8 mi Calm Calm - N/A   Overcast
4:42 PM 33.8 °F - 33.8 °F 100% 30.02 in 2.0 mi Calm Calm - N/A   Overcast
4:56 PM 32.9 °F - 32.9 °F 100% 30.03 in 10.0 mi Calm Calm - N/A   Overcast
5:56 PM 33.8 °F - 33.8 °F 100% 30.03 in 10.0 mi Calm Calm - N/A   Overcast
6:56 PM 32.9 °F - 32.9 °F 100% 30.05 in 6.0 mi Calm Calm - 0.00 in Rain Light Rain
7:10 PM 33.8 °F - 33.8 °F 100% 30.05 in 8.0 mi Calm Calm - 0.00 in   Overcast
7:56 PM 32.9 °F - 32.9 °F 100% 30.06 in 9.0 mi Calm Calm - 0.00 in   Overcast
8:08 PM 33.8 °F - 33.8 °F 100% 30.05 in 5.0 mi Calm Calm - N/A   Overcast
8:56 PM 33.8 °F - 33.8 °F 100% 30.07 in 10.0 mi Calm Calm - N/A   Overcast
9:12 PM 33.8 °F - 33.8 °F 100% 30.07 in 10.0 mi Calm Calm - N/A   Overcast
9:28 PM 33.8 °F - 33.8 °F 100% 30.07 in 10.0 mi Calm Calm - N/A   Overcast
9:56 PM 32.9 °F - 32.9 °F 100% 30.09 in 10.0 mi Calm Calm - N/A   Overcast
10:56 PM 32.0 °F - 32.0 °F 100% 30.10 in 7.0 mi Calm Calm - N/A   Overcast
11:22 PM 32.0 °F - 32.0 °F 100% 30.10 in 2.5 mi Calm Calm - N/A   Overcast
11:35 PM 33.8 °F - 33.8 °F 100% 30.10 in 10.0 mi Calm Calm - N/A   Overcast
11:56 PM 32.0 °F - 32.0 °F 100% 30.11 in 5.0 mi Calm Calm - N/A   Overcast